TimeEDT,TemperatureF,Dew PointF,Humidity,Sea Level PressureIn,VisibilityMPH,Wind Direction,Wind SpeedMPH,Gust SpeedMPH,PrecipitationIn,Events,Conditions,WindDirDegrees,DateUTC
12:03 AM,66.2,64.4,94,29.87,2.5,Calm,Calm,-,N/A,,Clear,0,2013-08-02 04:03:00
12:13 AM,66.2,64.4,94,29.87,4.0,Calm,Calm,-,N/A,,Clear,0,2013-08-02 04:13:00
12:53 AM,66.0,63.0,90,29.87,4.0,West,3.5,-,N/A,,Clear,280,2013-08-02 04:53:00
1:53 AM,66.0,63.0,90,29.87,9.0,Calm,Calm,-,N/A,,Clear,0,2013-08-02 05:53:00
2:53 AM,63.0,60.1,90,29.86,7.0,Calm,Calm,-,N/A,,Clear,0,2013-08-02 06:53:00
3:53 AM,61.0,57.9,90,29.87,9.0,Calm,Calm,-,0.01,,Clear,0,2013-08-02 07:53:00
4:53 AM,61.0,57.0,87,29.89,8.0,West,3.5,-,N/A,,Partly Cloudy,280,2013-08-02 08:53:00
5:53 AM,61.0,57.0,87,29.91,10.0,Calm,Calm,-,N/A,,Clear,0,2013-08-02 09:53:00
6:53 AM,62.1,57.9,86,29.92,7.0,Calm,Calm,-,N/A,,Clear,0,2013-08-02 10:53:00
7:53 AM,68.0,62.1,81,29.94,10.0,Calm,Calm,-,N/A,,Clear,0,2013-08-02 11:53:00
8:53 AM,71.1,62.1,73,29.96,10.0,WNW,4.6,-,N/A,,Clear,300,2013-08-02 12:53:00
9:53 AM,75.0,60.1,60,29.96,10.0,WNW,3.5,-,N/A,,Clear,300,2013-08-02 13:53:00
10:53 AM,77.0,59.0,54,29.95,10.0,Calm,Calm,-,N/A,,Clear,0,2013-08-02 14:53:00
11:53 AM,79.0,60.1,52,29.96,10.0,West,5.8,-,N/A,,Partly Cloudy,270,2013-08-02 15:53:00
12:53 PM,80.1,59.0,48,29.94,10.0,SSW,9.2,-,N/A,,Scattered Clouds,200,2013-08-02 16:53:00
1:53 PM,80.1,59.0,48,29.94,10.0,WSW,6.9,-,N/A,,Mostly Cloudy,240,2013-08-02 17:53:00
2:53 PM,80.1,59.0,48,29.94,10.0,West,8.1,16.1,N/A,,Mostly Cloudy,260,2013-08-02 18:53:00
3:53 PM,82.0,60.1,47,29.94,10.0,Variable,6.9,-,N/A,,Partly Cloudy,0,2013-08-02 19:53:00
4:53 PM,82.0,54.0,38,29.93,10.0,West,8.1,-,N/A,,Clear,260,2013-08-02 20:53:00
5:53 PM,80.1,55.0,42,29.92,10.0,Variable,5.8,-,N/A,,Clear,0,2013-08-02 21:53:00
6:53 PM,79.0,55.9,45,29.91,10.0,WSW,3.5,-,N/A,,Clear,250,2013-08-02 22:53:00
7:53 PM,75.0,57.9,55,29.93,10.0,WSW,3.5,-,N/A,,Mostly Cloudy,250,2013-08-02 23:53:00
8:53 PM,68.0,61.0,78,29.94,10.0,West,3.5,-,N/A,,Clear,280,2013-08-03 00:53:00
9:53 PM,66.0,61.0,84,29.96,10.0,Calm,Calm,-,N/A,,Clear,0,2013-08-03 01:53:00
10:53 PM,64.0,59.0,84,29.96,10.0,Calm,Calm,-,N/A,,Clear,0,2013-08-03 02:53:00
11:53 PM,64.0,59.0,84,29.96,10.0,Calm,Calm,-,N/A,,Clear,0,2013-08-03 03:53:00